Weather Roundup
Issued by NWS Corpus Christi, TX

Home | Current Version | Previous Version | Text Only | Print | Product List | Glossary On
Versions: 1 2 3 4 5 6 7 8 9 10 11 12 13 14 15 16 17 18 19 20 21 22 23 24 25 26 27 28 29 30 31 32 33 34 35 36 37 38 39 40 41 42 43 44 45 46 47 48 49 50
000
ASUS44 KCRP 242211
HRRCRP

SOUTH TEXAS REGIONAL WEATHER ROUNDUP
NATIONAL WEATHER SERVICE CORPUS CHRISTI TX
400 PM CST SAT FEB 24 2018


TXZ229>244-242300-
...CORPUS CHRISTI AREA OBSERVATIONS...

CITY           SKY/WX    TMP DP  RH WIND       PRES   REMARKS
CORPUS CHRISTI PTSUNNY   79  69  71 SE25      29.78F
NAS CORPUS CHR FAIR      74  69  85 S22G30    29.80S
ROCKPORT       PTSUNNY   73  68  84 S16G23    29.82S HAZE
KINGSVILLE ARP FAIR      92  66  42 S9        29.78S HX  94
KINGSVILLE NAS MOSUNNY   87  67  51 S17       29.77S HX  90
ALICE          MOSUNNY   89  64  43 SW13G18   29.77S HX  90
$$

...VICTORIA AREA OBSERVATIONS...

CITY           SKY/WX    TMP DP  RH WIND       PRES   REMARKS
PORT LAVACA    CLOUDY    76  68  77 S17G25    29.85R
VICTORIA       CLOUDY    77  68  73 S18       29.84S
BEEVILLE       CLOUDY    80  70  70 E8        29.82R
PLEASANTON     CLOUDY    74  68  80 NW6       29.85S
SAN ANTONIO    CLOUDY    73  65  75 S8        29.85F
$$

...LAREDO AREA OBSERVATIONS...

CITY           SKY/WX    TMP DP  RH WIND       PRES   REMARKS
LAREDO         CLOUDY    81  66  60 CALM      29.81S
COTULLA        CLOUDY    74  68  81 NW3       29.82F
DEL RIO        MOSUNNY   80  59  48 VRB7      29.82F
MCALLEN        FAIR      91  70  49 SE23G31   29.75F HX  96
HEBBRONVILLE   PTSUNNY   83  64  51 SW5       29.80S
$$

...OTHER TEXAS OBSERVATIONS...

CITY           SKY/WX    TMP DP  RH WIND       PRES   REMARKS
BROWNSVILLE    FAIR      84  70  62 S31G38    29.81F
HOUSTON        CLOUDY    79  66  64 S9G18     29.86F
COL. STATION   CLOUDY    73  68  84 S17       29.82F
AUSTIN         CLOUDY    75  68  78 SW14      29.83S
WACO           CLOUDY    61  56  83 N15       29.84R
FORT WORTH     PTSUNNY   63  47  55 NW13      29.85S
WICHITA FALLS  SUNNY     61  42  49 S13       29.84S
LUBBOCK        SUNNY     56   1  10 W32G40    29.91R
EL PASO        MOSUNNY   55   8  15 SW7       30.02F
$$

...MARINE OBSERVATIONS...

STATION/POSITION TIME  SKY/WX   TEMP    WIND        PRES    VSBY  WAVE   SWELL
                                AIR SEA DIR/SP/G                  HT/PER HT/PER
                 (UTC)          (F)     (DEG/KT/KT) (MB)    (MI)  (FT/S) (FT/S)
PORT ARANSAS     NOT AVBL
BUOY 90 E PORT A 2150            74 74  140/ 16/ 17 1011.1F         6/ 6   2/ 8
BUOY 200 E PT IS 2150            75 74  160/ 14/ 17 1013.1F         6/ 6   3/ 7
BUOY 15 E GALVES 2050            67 65  160/  8/  8 1012.5          3/ 6   3/ 6
$$




USA.gov is the U.S. government's official web portal to all federal, state and local government web resources and services.